Theta_e
308 311 313 310 310 310 314 314 314 312 322 323 321 321 321 320 319 314 328 332 333 332 333 332 331 329 327 325 321 321 321 321 320 319 318 318 317 317 316 316 316 316 317 322 325 329 331 330 331
309 313 309 302 308 311 308 310 312 312 321 319 319 319 319 321 324 327 329 331 333 333 332 330 330 328 325 322 320 319 319 319 318 318 317 316 315 315 314 314 314 314 314 315 317 321 326 328 327
312 311 304 305 303 309 308 308 309 316 316 318 320 315 317 320 322 327 329 331 333 332 330 329 328 325 323 320 317 318 318 317 317 316 315 314 313 312 312 312 312 313 313 315 315 316 317 322 324
312 304 300 306 305 306 307 310 309 315 317 317 317 319 317 320 324 328 329 332 332 331 330 329 325 323 321 317 318 318 317 316 315 314 312 311 311 311 311 311 311 312 312 312 313 314 315 315 317
307 299 303 306 306 307 304 306 308 312 313 318 317 317 319 323 324 328 330 331 331 330 329 326 322 321 318 318 318 317 316 314 312 311 310 309 309 308 310 310 309 310 310 311 312 313 313 313 315
304 300 303 304 304 307 306 308 309 309 310 316 318 317 318 323 326 329 330 330 329 328 326 322 320 319 317 318 317 316 314 312 306 305 305 305 305 305 307 307 307 309 310 311 312 312 312 312 312
305 303 304 305 307 309 309 309 312 312 313 316 315 318 317 323 326 329 329 329 328 326 324 320 318 316 315 315 313 312 309 304 304 305 305 305 304 302 301 301 302 309 310 311 311 311 312 312 313
302 302 308 306 307 310 310 310 312 311 310 311 312 317 317 320 327 328 328 327 325 323 320 318 316 314 312 309 307 305 303 303 306 306 306 305 303 301 301 301 302 308 309 309 310 311 311 312 312
302 306 306 308 307 309 307 310 309 306 311 310 312 313 315 322 326 326 324 323 322 321 319 317 315 312 309 306 305 303 303 306 307 307 306 305 302 300 301 303 304 305 306 307 309 310 311 309 309
305 305 306 305 304 307 306 306 306 306 306 306 307 316 318 322 323 320 319 319 320 319 318 316 314 310 307 306 305 304 306 307 307 307 306 303 301 303 304 304 304 305 306 306 307 307 307 307 308
304 305 304 306 306 306 307 306 305 306 305 303 304 306 316 318 319 319 319 320 320 319 317 316 313 309 308 308 306 306 307 308 307 306 304 301 303 303 303 303 304 305 306 305 306 306 307 307 308
307 305 305 307 307 307 307 305 305 303 304 304 303 306 316 317 316 318 318 319 319 318 318 316 312 310 310 309 307 308 308 308 307 305 302 303 303 302 303 303 304 305 306 307 306 307 308 309 308
309 308 306 306 306 305 304 305 304 302 301 300 302 314 316 317 318 319 319 319 319 318 318 316 313 311 310 309 307 308 308 307 306 302 302 304 302 301 303 304 305 306 308 307 307 308 310 310 309
307 307 307 306 307 305 306 305 305 304 302 303 301 301 311 315 317 317 318 318 318 318 318 316 313 312 310 309 308 308 308 307 304 301 304 303 302 303 304 305 307 308 307 308 309 309 309 310 310
307 307 305 304 304 305 303 302 303 303 303 303 302 302 300 302 313 316 319 319 319 318 317 316 313 311 310 309 309 308 308 305 301 303 304 303 303 304 306 306 307 307 308 308 309 309 309 310 310
305 306 306 305 304 305 303 301 303 303 301 304 302 300 301 301 302 308 316 318 319 318 317 315 313 311 310 309 309 308 306 302 301 304 304 303 304 305 306 308 307 307 308 309 311 309 309 309 309
304 302 304 304 304 306 303 304 303 304 303 304 303 302 301 300 300 303 311 316 318 319 317 315 312 311 310 309 308 306 303 301 303 304 303 304 305 305 306 308 308 308 308 309 311 310 309 310 310
302 305 303 304 305 306 307 305 304 303 303 303 303 301 299 298 298 303 306 313 316 318 318 315 312 311 310 309 307 304 301 303 304 303 303 305 305 305 306 307 308 308 309 309 311 311 310 311 312
302 303 303 303 306 307 305 305 306 303 301 301 300 299 299 298 306 308 310 313 315 317 316 313 311 310 310 307 304 302 302 303 304 303 304 305 305 306 306 307 308 310 310 309 311 311 311 312 311
304 305 305 304 304 305 303 304 303 303 302 303 303 301 299 306 307 307 310 312 314 314 314 312 311 310 309 307 304 301 302 303 304 303 304 304 305 305 306 307 308 310 310 309 310 311 311 311 311
303 303 304 305 304 303 303 303 305 306 305 304 302 302 303 306 308 306 307 309 312 312 312 312 311 310 307 305 302 301 302 303 303 304 304 304 305 305 306 307 308 310 310 310 311 311 310 310 309
303 302 303 305 304 303 303 303 304 305 305 306 303 303 305 307 307 306 306 307 310 311 311 311 310 308 306 303 301 300 301 302 303 304 304 304 305 305 306 306 308 310 311 310 311 312 312 310 310
303 303 303 304 303 305 304 303 303 304 306 305 303 301 304 306 307 307 306 308 310 310 311 310 308 306 304 302 300 300 302 304 304 303 303 304 305 305 306 306 308 310 311 311 310 312 311 311 310
305 305 304 303 305 303 304 303 303 304 306 307 304 301 300 302 305 305 307 308 308 308 308 307 306 304 302 300 300 301 302 303 303 303 303 304 305 305 305 306 309 310 311 311 311 312 312 310 310
305 305 302 304 300 306 303 303 304 304 306 305 304 301 299 299 302 304 304 304 305 306 307 306 304 302 301 300 300 301 302 303 303 303 303 304 304 305 305 307 309 310 310 312 313 313 310 310 310
305 306 308 307 305 307 303 306 305 303 302 305 303 301 299 299 301 302 303 304 305 305 305 305 303 302 301 300 299 300 302 303 303 304 304 303 303 304 305 306 309 310 310 313 313 312 310 310 310
308 307 305 306 296 307 305 304 305 303 303 302 301 300 300 300 301 302 302 304 305 305 305 305 303 302 301 300 299 300 301 302 302 303 303 303 303 304 305 306 309 311 310 311 313 312 310 310 311
305 304 307 305 305 309 308 307 309 305 303 300 301 301 300 300 300 301 301 303 304 305 305 303 303 302 302 300 300 300 301 302 302 303 303 303 303 304 305 306 307 310 311 310 312 311 310 311 310
305 306 305 306 308 309 307 309 304 306 303 300 300 300 299 299 299 300 300 303 304 304 304 303 302 302 301 301 300 299 300 301 302 302 302 303 303 304 305 306 307 309 311 311 311 311 310 311 310
303 306 306 310 308 305 308 309 305 304 301 300 299 301 301 298 298 298 299 302 303 303 303 303 303 302 302 301 300 300 299 300 301 302 302 302 303 304 306 306 307 309 311 311 311 311 310 310 310
Wind_Speed
9 7 3 6 4 5 3 5 2 3 2 1 2 2 3 1 3 3 1 12 8 20 19 15 13 10 9 8 6 5 5 6 6 7 8 8 8 8 8 9 9 9 7 7 7 7 7 8 7
8 4 4 3 4 2 5 4 5 4 1 3 2 1 1 1 1 2 8 11 14 20 18 15 14 11 9 8 6 5 5 6 7 7 7 8 8 8 9 9 9 9 9 9 9 9 7 7 11
4 4 3 4 3 4 4 4 4 2 1 1 0 2 3 1 1 6 3 17 18 20 18 16 14 11 9 8 6 6 7 7 7 7 7 7 7 8 8 9 10 10 10 9 9 9 10 9 9
1 6 4 4 5 6 4 2 3 2 1 3 1 2 0 1 2 6 11 19 20 19 17 17 14 11 10 8 7 8 8 7 6 6 6 6 7 7 8 8 8 8 9 10 11 10 10 9 9
5 3 3 0 5 4 5 4 2 2 2 1 1 2 2 1 3 9 18 20 20 19 17 16 14 13 10 9 9 8 7 6 5 4 5 5 6 6 7 8 9 10 11 11 12 12 12 11 11
4 3 3 3 5 4 5 4 2 2 1 2 0 2 2 0 8 16 19 19 16 18 17 15 13 11 9 9 9 8 6 4 3 3 4 5 6 7 8 8 10 11 11 12 12 12 12 12 12
5 4 4 3 4 4 5 3 3 2 1 4 3 2 1 3 7 18 18 17 15 16 17 16 13 10 9 8 7 5 4 2 2 3 4 6 9 9 10 11 11 12 12 12 12 13 13 12 13
5 4 2 4 4 5 2 1 3 4 5 1 6 4 4 4 16 19 18 17 16 17 15 15 14 12 11 9 7 5 3 1 0 3 5 8 11 11 10 10 10 10 12 13 13 13 13 13 14
4 3 3 5 6 4 1 0 1 2 1 2 4 3 1 17 22 20 17 16 17 17 16 15 14 12 10 8 7 6 4 3 1 3 7 10 12 13 10 10 10 11 12 12 13 13 13 13 13
4 4 9 4 4 2 2 1 3 3 2 4 4 1 5 22 25 21 18 18 20 20 18 16 14 12 10 9 7 6 4 3 2 4 7 10 12 11 10 9 10 10 11 12 12 14 15 15 15
4 6 4 3 4 2 1 2 1 1 5 9 6 4 6 9 15 17 19 24 26 22 19 17 15 13 11 9 7 5 4 2 2 5 7 10 10 9 9 9 9 10 12 15 15 16 16 16 16
2 6 4 2 1 1 2 3 5 7 8 3 4 4 7 9 9 18 20 23 22 22 19 17 15 13 12 9 7 5 4 2 3 5 7 8 9 8 8 8 10 12 15 16 15 17 16 15 13
3 3 3 5 4 4 2 6 6 10 12 10 5 4 9 9 11 15 20 21 21 22 20 18 17 14 13 10 8 6 4 2 3 5 6 7 9 8 7 9 11 13 16 17 16 16 17 15 11
3 3 5 5 4 3 4 3 1 5 1 3 5 9 8 9 14 11 16 20 22 22 22 19 18 15 13 11 9 6 4 3 3 4 4 6 8 7 9 10 13 15 15 16 16 16 18 15 11
1 4 6 6 4 6 5 7 10 8 4 8 6 4 9 10 12 18 24 24 24 24 22 21 19 16 14 11 10 7 4 2 3 2 3 5 6 7 9 12 13 15 15 16 16 16 18 14 14
1 2 2 1 5 1 3 9 4 4 5 6 6 6 6 6 10 22 23 23 21 22 23 22 20 17 15 13 10 7 4 1 2 1 3 4 5 7 9 11 13 14 13 16 17 16 17 13 12
3 3 4 7 6 3 5 7 4 3 4 5 6 6 6 6 7 10 16 20 21 23 25 23 21 19 16 13 9 6 3 1 0 2 3 4 5 6 9 12 12 12 14 16 17 14 12 12 11
6 4 4 4 1 2 3 12 10 9 7 10 9 8 8 7 7 6 12 16 20 22 24 25 22 19 16 13 9 6 3 2 1 1 2 3 5 7 8 10 11 13 13 14 16 11 10 11 12
3 3 2 3 1 2 6 9 13 11 6 10 7 9 8 6 1 8 13 17 21 23 27 26 24 21 18 15 11 6 5 4 2 1 1 2 4 6 8 10 12 15 15 12 14 10 8 13 13
1 1 4 3 1 2 4 13 10 9 6 4 5 7 4 6 5 6 16 20 24 27 29 27 23 20 17 13 9 4 5 5 4 3 1 1 3 5 8 11 13 15 14 10 13 12 8 7 12
4 6 3 3 3 1 6 9 4 1 2 2 1 1 3 7 8 6 9 18 22 27 27 24 21 18 15 11 8 6 5 4 5 4 3 2 2 5 7 9 11 13 14 10 11 10 7 5 7
5 9 6 1 4 4 3 5 5 2 5 3 3 3 5 7 5 5 8 15 23 23 22 20 18 16 14 11 8 7 5 4 4 4 3 2 2 4 6 8 9 11 11 9 9 9 8 4 3
5 5 7 4 4 1 2 1 8 2 6 7 7 6 6 6 7 8 9 17 20 20 20 18 17 15 13 11 8 7 5 5 4 5 4 2 2 3 5 8 8 10 10 9 5 6 8 6 4
8 7 7 4 3 2 7 7 5 5 6 3 4 6 8 7 7 6 11 16 17 17 17 17 17 15 13 11 9 6 6 6 6 5 4 3 2 2 4 7 8 10 9 8 4 4 4 5 3
2 6 3 3 2 6 2 3 8 4 5 5 8 8 8 8 8 8 8 12 18 19 18 18 17 16 13 11 9 7 7 7 6 6 5 4 2 2 4 6 7 9 9 6 5 5 5 5 4
7 7 6 8 5 3 2 7 6 4 5 3 3 7 7 8 7 8 8 15 20 20 20 19 18 15 14 11 9 7 7 8 7 6 5 4 4 3 4 4 5 7 7 7 5 4 5 5 5
6 7 4 6 2 2 5 7 9 5 4 4 5 6 8 8 8 8 9 18 20 20 21 21 18 16 14 12 10 8 8 8 7 6 5 5 4 3 4 4 4 5 6 4 6 4 7 7 6
4 7 3 2 4 4 4 5 5 5 9 7 7 8 7 6 7 7 7 15 19 20 19 18 17 16 13 11 10 8 8 8 8 8 6 5 4 4 4 4 4 3 5 3 5 7 8 9 8
4 3 3 4 4 5 2 6 7 8 9 10 8 7 7 7 7 7 7 15 18 17 17 18 17 16 14 13 11 10 10 10 10 9 7 5 5 4 4 5 3 2 3 4 6 7 9 9 11
3 5 6 5 6 2 3 6 1 5 7 9 8 7 4 5 6 6 7 12 14 16 16 18 17 17 16 14 13 13 12 11 11 10 8 6 5 4 4 5 5 3 1 3 5 7 9 9 13
Wind_Direction
336 343 0 36 50 63 267 259 264 275 266 222 74 160 232 91 152 206 346 164 144 164 163 178 173 153 148 141 139 110 93 87 73 61 54 44 39 31 22 16 14 1 338 328 320 325 340 336 349
347 349 41 75 94 78 264 256 237 230 308 87 106 127 13 337 156 124 128 157 155 158 163 177 173 156 141 135 125 119 112 91 79 71 61 48 37 28 19 10 5 2 355 350 342 328 302 310 302
4 22 83 98 117 188 209 226 245 267 281 159 74 49 145 201 167 179 200 164 161 163 162 169 170 147 142 140 142 129 106 95 87 72 56 41 28 18 12 7 360 353 352 347 340 335 327 301 314
33 22 38 96 220 248 215 257 222 292 322 173 159 219 248 192 160 166 159 171 166 168 167 170 164 150 152 153 139 123 113 105 90 71 48 28 17 12 5 1 354 348 343 337 331 327 323 315 304
51 60 62 321 252 260 247 256 179 250 272 259 125 259 241 5 174 160 156 161 167 165 165 168 166 159 160 151 135 128 123 112 98 66 35 18 11 359 353 346 348 339 332 328 327 321 317 312 306
48 96 71 223 247 253 275 233 200 214 227 291 192 168 251 19 151 156 159 161 166 163 166 167 167 164 155 140 135 132 122 107 77 42 12 3 355 350 345 340 335 337 333 329 328 328 320 309 301
120 101 218 213 245 288 226 159 205 193 267 248 156 190 306 169 170 158 161 163 166 167 167 169 170 164 153 152 149 141 134 120 37 7 359 351 345 339 336 331 335 341 337 330 324 319 315 311 309
111 96 160 250 215 256 210 230 146 158 241 353 163 225 256 192 161 159 162 165 168 170 173 174 174 174 171 167 165 166 166 125 330 334 348 350 344 342 337 333 338 342 334 329 325 323 321 315 305
137 70 216 245 171 252 5 209 195 343 292 310 212 184 356 156 159 158 159 165 172 175 180 181 181 179 175 169 174 179 179 187 283 331 343 343 343 342 348 350 344 339 337 334 331 328 324 318 311
114 148 218 202 203 267 335 27 326 2 349 270 280 130 121 159 164 162 171 175 182 184 184 186 187 184 178 176 180 185 189 216 281 334 338 343 345 351 349 351 347 346 343 342 336 328 321 315 311
179 203 213 237 226 169 287 287 280 237 262 225 224 223 149 164 170 175 187 191 192 190 189 189 189 185 182 183 183 189 209 226 309 335 338 343 353 356 0 3 8 360 354 345 338 334 328 323 319
245 236 213 276 126 116 228 309 284 207 233 139 237 214 168 176 186 189 194 198 195 193 195 192 190 188 185 191 193 205 220 241 315 332 338 350 7 7 4 10 11 2 354 347 340 337 332 328 321
222 270 168 269 282 261 329 248 239 261 257 259 244 178 184 187 205 207 206 205 201 197 196 195 192 192 192 196 199 209 209 250 309 330 346 1 5 7 21 14 12 2 355 349 347 342 338 335 328
195 258 269 272 243 247 226 256 124 257 128 349 194 222 214 204 208 206 205 206 203 202 198 194 194 194 195 198 201 202 206 265 313 337 355 9 13 22 13 16 8 7 14 10 360 348 341 338 336
221 313 313 228 214 226 168 278 234 234 311 263 271 225 221 232 229 216 219 212 206 203 196 194 191 191 195 197 202 196 206 237 305 343 11 11 12 12 14 13 16 19 22 10 360 355 348 348 344
231 73 316 316 141 198 159 267 270 36 189 246 241 264 229 216 220 232 225 220 210 201 194 188 189 188 188 192 193 191 201 234 311 11 6 16 22 15 8 16 19 23 14 7 11 7 10 6 5
356 235 209 312 186 130 175 275 283 55 42 313 271 244 221 272 286 236 213 209 203 197 189 183 185 186 184 187 184 187 192 193 60 359 14 38 20 12 8 12 17 17 8 5 11 13 13 23 24
202 227 236 245 177 191 226 264 279 277 281 270 270 261 248 251 257 207 185 189 192 187 185 180 179 181 181 181 176 179 174 155 146 344 24 23 10 11 10 12 9 10 17 8 10 16 38 28 2
134 204 249 226 209 216 240 265 273 280 235 264 260 267 270 239 67 142 153 163 169 176 175 177 176 178 182 176 168 176 185 184 172 194 69 28 358 8 12 12 11 19 18 12 11 23 0 13 7
16 321 264 280 209 202 323 284 259 259 247 241 287 283 212 142 122 119 140 153 165 168 172 173 178 179 183 185 182 176 175 193 186 191 230 344 348 2 13 13 17 18 17 19 11 20 359 4 25
212 195 225 246 335 258 329 289 296 228 160 189 28 52 138 162 147 137 131 152 160 165 170 172 177 181 184 187 184 164 163 174 190 199 224 273 325 355 11 14 16 23 20 19 10 26 6 355 9
214 200 174 228 37 247 17 278 297 231 271 234 178 148 153 145 129 132 137 152 163 167 168 172 177 182 185 187 190 191 194 188 186 192 217 258 314 352 7 11 16 21 26 18 14 33 13 354 5
221 134 171 143 139 14 243 3 273 332 258 223 204 188 178 168 156 160 161 161 165 165 170 175 177 181 185 186 194 196 198 193 176 198 215 229 284 339 2 8 16 19 22 12 8 36 39 7 352
159 82 54 57 85 312 205 173 263 204 217 182 173 190 181 171 166 158 162 162 162 169 173 177 179 181 184 188 193 195 203 197 187 200 221 237 255 306 350 7 23 21 22 8 9 12 25 34 75
113 103 18 354 5 225 352 179 249 228 218 197 191 192 185 178 168 165 164 167 170 173 177 180 184 184 188 195 200 196 202 206 199 206 221 239 259 292 338 2 27 24 28 26 27 65 64 77 100
190 168 162 195 196 213 100 229 243 219 205 213 146 171 163 178 179 178 179 178 182 182 182 185 189 190 193 200 205 197 205 215 210 215 228 252 268 288 313 356 24 34 37 37 80 77 74 95 105
197 214 151 103 29 65 207 282 289 197 209 202 175 161 180 185 186 182 181 188 190 189 189 190 192 198 200 198 206 204 208 211 217 217 224 249 267 273 292 328 9 47 58 53 99 87 105 106 117
175 158 96 8 145 243 273 280 242 215 207 204 188 193 191 188 184 184 187 191 196 197 195 195 200 206 205 204 208 210 215 216 216 221 220 241 251 266 285 310 338 35 81 101 110 106 116 130 115
157 180 192 142 167 178 200 254 218 224 187 186 195 191 189 190 193 190 189 196 198 197 198 201 206 208 208 208 206 211 214 215 216 219 217 229 232 247 273 288 308 334 91 125 141 130 133 141 135
304 219 171 175 219 234 155 263 336 264 192 164 178 164 142 170 187 188 188 184 189 197 202 210 212 213 214 213 210 213 213 214 221 222 223 228 232 244 265 279 292 290 37 166 153 148 148 149 152